This demonstration page uses our WeatherBlox Daily Observations layout. Learn more.

Hourly Observations for May 21, 2019

Temp ( °F °C ) Dew Point ( °F °C ) Humidity (%) Winds ( mph kmh ) Pressure ( in mb ) Visibility ( mi km ) Precip ( " mm )
12:15 am 00:15 Clear 70 21 55 13 60 60 NNW 9 15 29.91 1013 10 16.09344 0 0
12:35 am 00:35 Clear 70 21 55 13 60 60 NNW 12 19 29.91 1013 10 16.09344 0 0
12:55 am 00:55 Clear 70 21 55 13 60 60 NNW 8 13 29.94 1014 10 16.09344 0 0
1:15 am 01:15 Clear 68 20 55 13 64 64 N 15 24 29.94 1014 10 16.09344 0 0
1:35 am 01:35 Clear 68 20 54 12 60 60 NNW 12 19 29.94 1014 10 16.09344 0 0
1:55 am 01:55 Clear 68 20 54 12 60 60 N 7 11 29.94 1014 10 16.09344 0 0
2:15 am 02:15 Clear 66 19 54 12 64 64 N 12 19 29.94 1014 10 16.09344 0 0
2:35 am 02:35 Clear 64 18 54 12 68 68 N 8 13 29.94 1014 10 16.09344 0 0
2:55 am 02:55 Clear 64 18 54 12 68 68 NNW 9 15 29.97 1015 10 16.09344 0 0
3:15 am 03:15 Clear 63 17 54 12 73 73 NNW 9 15 29.97 1015 10 16.09344 0 0
3:35 am 03:35 Clear 63 17 54 12 73 73 NNW 8 13 29.97 1015 10 16.09344 0 0
3:55 am 03:55 Clear 63 17 54 12 73 73 NNW 8 13 29.94 1014 10 16.09344 0 0
4:15 am 04:15 Clear 61 16 52 11 72 72 NNW 8 13 29.97 1015 10 16.09344 0 0
4:35 am 04:35 Clear 61 16 52 11 72 72 NNW 9 15 29.97 1015 10 16.09344 0 0
4:55 am 04:55 Clear 61 16 52 11 72 72 NNW 8 13 29.97 1015 10 16.09344 0 0
5:15 am 05:15 Clear 61 16 52 11 72 72 N 8 13 29.97 1015 10 16.09344 0 0
5:35 am 05:35 Partly Cloudy 61 16 50 10 68 68 N 9 15 30 1016 10 16.09344 0 0
5:55 am 05:55 Cloudy 61 16 50 10 68 68 NNW 12 19 30 1016 10 16.09344 0 0
6:15 am 06:15 Partly Cloudy 59 15 46 8 63 63 N 14 22 30.03 1017 10 16.09344 0 0
6:35 am 06:35 Sunny 59 15 46 8 63 63 N 15 24 30.03 1017 10 16.09344 0 0
6:55 am 06:55 Partly Cloudy 59 15 46 8 63 63 N 8 13 30.03 1017 10 16.09344 0 0
7:15 am 07:15 Partly Cloudy 59 15 46 8 63 63 N 14 22 30.03 1017 10 16.09344 0 0
7:35 am 07:35 Sunny 59 15 46 8 63 63 NNW 16 26 30.03 1017 10 16.09344 0 0
7:55 am 07:55 Sunny 59 15 46 8 63 63 N 12 19 30.06 1018 10 16.09344 0 0
8:15 am 08:15 Sunny 61 16 46 8 59 59 NNW 17 28 30.06 1018 10 16.09344 0 0
8:35 am 08:35 Sunny 61 16 46 8 59 59 N 15 24 30.06 1018 10 16.09344 0 0
8:55 am 08:55 Sunny 61 16 46 8 59 59 N 15 24 30.09 1019 10 16.09344 0 0
9:15 am 09:15 Partly Cloudy 61 16 46 8 59 59 N 16 26 30.09 1019 10 16.09344 0 0
9:35 am 09:35 Partly Cloudy 61 16 46 8 59 59 N 12 19 30.09 1019 10 16.09344 0 0
9:55 am 09:55 Partly Cloudy 63 17 46 8 56 56 N 13 20 30.09 1019 10 16.09344 0 0
10:15 am 10:15 Sunny 63 17 46 8 56 56 NNW 16 26 30.09 1019 10 16.09344 0 0
10:35 am 10:35 Sunny 63 17 46 8 56 56 N 14 22 30.09 1019 10 16.09344 0 0
10:55 am 10:55 Sunny 63 17 46 8 56 56 NNW 16 26 30.09 1019 10 16.09344 0 0
11:15 am 11:15 Sunny 63 17 46 8 56 56 N 14 22 30.09 1019 10 16.09344 0 0
11:35 am 11:35 Sunny 64 18 46 8 52 52 NNW 10 17 30.09 1019 10 16.09344 0 0
11:55 am 11:55 Sunny 64 18 46 8 52 52 NW 15 24 30.09 1019 10 16.09344 0 0
12:15 pm 12:15 Sunny 64 18 46 8 52 52 NNW 14 22 30.09 1019 10 16.09344 0 0
12:35 pm 12:35 Sunny 64 18 46 8 52 52 NW 12 19 30.09 1019 10 16.09344 0 0
12:55 pm 12:55 Sunny 66 19 45 7 46 46 N 8 13 30.09 1019 10 16.09344 0 0
1:15 pm 13:15 Sunny 64 18 45 7 49 49 NNW 12 19 30.09 1019 5 8.04672 0 0
1:35 pm 13:35 Sunny 68 20 46 8 46 46 NNW 12 19 30.09 1019 10 16.09344 0 0
1:55 pm 13:55 Sunny 66 19 43 6 43 43 N 10 17 30.06 1018 10 16.09344 0 0
2:15 pm 14:15 Sunny 68 20 45 7 43 43 NNW 6 9 30.06 1018 10 16.09344 0 0
2:35 pm 14:35 Sunny 68 20 45 7 43 43 N 12 19 30.09 1019 10 16.09344 0 0
2:55 pm 14:55 Sunny 68 20 45 7 43 43 N 5 7 30.06 1018 10 16.09344 0 0
3:15 pm 15:15 Sunny 70 21 46 8 43 43 NNW 6 9 30.06 1018 10 16.09344 0 0
3:35 pm 15:35 Sunny 70 21 46 8 43 43 N 10 17 30.06 1018 10 16.09344 0 0
3:55 pm 15:55 Sunny 70 21 46 8 43 43 NW 9 15 30.06 1018 10 16.09344 0 0
4:15 pm 16:15 Sunny 70 21 45 7 40 40 NE 7 11 30.06 1018 10 16.09344 0 0
4:35 pm 16:35 Sunny 70 21 45 7 40 40 N 9 15 30.09 1019 10 16.09344 0 0
4:55 pm 16:55 Sunny 70 21 46 8 43 43 NNW 6 9 30.09 1019 10 16.09344 0 0
5:15 pm 17:15 Sunny 70 21 46 8 43 43 N 10 17 30.09 1019 10 16.09344 0 0
5:35 pm 17:35 Sunny 72 22 45 7 38 38 N 10 17 30.09 1019 10 16.09344 0 0
5:55 pm 17:55 Sunny 70 21 45 7 40 40 N 8 13 30.09 1019 10 16.09344 0 0
6:15 pm 18:15 Sunny 70 21 45 7 40 40 N 10 17 30.09 1019 10 16.09344 0 0
6:35 pm 18:35 Sunny 70 21 46 8 43 43 NNW 7 11 30.09 1019 10 16.09344 0 0
6:55 pm 18:55 Sunny 70 21 45 7 40 40 N 8 13 30.09 1019 10 16.09344 0 0
7:15 pm 19:15 Mostly Cloudy 68 20 45 7 43 43 NNW 5 7 30.09 1019 10 16.09344 0 0
7:35 pm 19:35 Cloudy 68 20 46 8 46 46 NNW 6 9 30.09 1019 10 16.09344 0 0
7:55 pm 19:55 Cloudy 68 20 48 9 49 49 NNW 3 6 30.09 1019 10 16.09344 0 0
8:15 pm 20:15 Partly Cloudy 68 20 48 9 49 49 Calm 30.09 1019 10 16.09344 0 0
8:35 pm 20:35 Mostly Cloudy 64 18 50 10 60 60 Calm 30.12 1020 10 16.09344 0 0
8:55 pm 20:55 Mostly Cloudy 64 18 48 9 56 56 N 6 9 30.12 1020 10 16.09344 0 0
9:15 pm 21:15 Partly Cloudy 64 18 46 8 52 52 N 5 7 30.12 1020 10 16.09344 0 0
9:35 pm 21:35 Clear 64 18 46 8 52 52 N 5 7 30.12 1020 10 16.09344 0 0
9:55 pm 21:55 Clear 63 17 46 8 56 56 Calm 30.12 1020 10 16.09344 0 0
10:15 pm 22:15 Clear 63 17 45 7 52 52 NNE 5 7 30.15 1021 10 16.09344 0 0
10:35 pm 22:35 Clear 63 17 46 8 56 56 NNE 6 9 30.15 1021 10 16.09344 0 0
10:55 pm 22:55 Clear 59 15 48 9 68 68 Calm 30.15 1021 10 16.09344 0 0
11:15 pm 23:15 Clear 57 14 52 11 82 82 NNW 3 6 30.15 1021 10 16.09344 0 0
11:35 pm 23:35 Clear 57 14 50 10 77 77 Calm 30.15 1021 10 16.09344 0 0
11:55 pm 23:55 Clear 55 13 50 10 82 82 Calm 30.15 1021 10 16.09344 0 0

Powered by AerisWeather